• In Deutschland
  • Länderverzeichnis
  • Für 7 Tage
  • Wassertemperatur
  • Satellitenkarten
  • Wetterkarte
  • Widgets
  • user-avatar
    Anmelden

    Stündliche Wetter Bad Wiessee

    Heute, 23 Januar, Dienstag

    Zeit Temperatur Niederschläge Wind Luftdruck Luftfeuchtigkeit
    00:00 -1°C° 0,5 mm 2 m/S 660 mmHg 99%
    01:00 -1°C° 0,5 mm 2 m/S 661 mmHg 99%
    02:00 -1°C° 0,6 mm 2 m/S 661 mmHg 98%
    03:00 -1°C° 0,6 mm 2 m/S 662 mmHg 98%
    04:00 -1°C° 0,6 mm 2 m/S 662 mmHg 98%
    05:00 -2°C° 0,5 mm 2 m/S 663 mmHg 97%
    06:00 -2°C° 0,5 mm 2 m/S 663 mmHg 97%
    07:00 -2°C° 0,5 mm 2 m/S 664 mmHg 96%
    08:00 -2°C° 0,3 mm 2 m/S 664 mmHg 96%
    09:00 -2°C° 0,3 mm 2 m/S 665 mmHg 96%
    10:00 -1°C° 0,3 mm 2 m/S 666 mmHg 96%
    11:00 -1°C° 0,1 mm 2 m/S 666 mmHg 95%
    12:00 +1°C° 0,1 mm 2 m/S 666 mmHg 95%
    13:00 +2°C° 0,1 mm 1 m/S 666 mmHg 94%
    14:00 +2°C° 0 mm 1 m/S 666 mmHg 94%
    15:00 +2°C° 0 mm 1 m/S 666 mmHg 94%
    16:00 +1°C° 0 mm 1 m/S 666 mmHg 95%
    17:00 0°C° 0 mm 1 m/S 666 mmHg 92%
    18:00 -1°C° 0 mm 1 m/S 667 mmHg 89%
    19:00 -4°C° 0 mm 2 m/S 667 mmHg 86%
    20:00 -4°C° 0 mm 2 m/S 667 mmHg 83%
    21:00 -4°C° 0 mm 2 m/S 667 mmHg 80%
    22:00 -5°C° 0 mm 2 m/S 667 mmHg 77%
    23:00 -4°C° 0 mm 2 m/S 667 mmHg 76%

    Morgen, 24 Januar, Mittwoch

    Zeit Temperatur Niederschläge Wind Luftdruck Luftfeuchtigkeit
    00:00 -4°C° 0 mm 2 m/S 667 mmHg 75%
    01:00 -3°C° 0 mm 2 m/S 667 mmHg 74%
    02:00 -2°C° 0,1 mm 2 m/S 667 mmHg 74%
    03:00 -2°C° 0,1 mm 2 m/S 667 mmHg 74%
    04:00 -1°C° 0,1 mm 2 m/S 668 mmHg 75%
    05:00 -1°C° 0 mm 2 m/S 667 mmHg 74%
    06:00 -1°C° 0 mm 2 m/S 667 mmHg 73%
    07:00 -2°C° 0 mm 2 m/S 667 mmHg 73%
    08:00 -1°C° 0 mm 2 m/S 667 mmHg 76%
    09:00 +1°C° 0 mm 2 m/S 668 mmHg 79%
    10:00 +2°C° 0 mm 2 m/S 668 mmHg 82%
    11:00 +4°C° 0 mm 1 m/S 667 mmHg 84%
    12:00 +5°C° 0 mm 1 m/S 667 mmHg 87%
    13:00 +5°C° 0 mm 1 m/S 667 mmHg 90%
    14:00 +5°C° 0 mm 1 m/S 666 mmHg 91%
    15:00 +4°C° 0 mm 1 m/S 666 mmHg 92%
    16:00 +2°C° 0 mm 2 m/S 666 mmHg 93%
    17:00 +2°C° 0 mm 2 m/S 665 mmHg 90%
    18:00 +1°C° 0 mm 2 m/S 665 mmHg 87%
    19:00 -1°C° 0 mm 2 m/S 665 mmHg 84%
    20:00 -1°C° 0 mm 2 m/S 665 mmHg 82%
    21:00 -2°C° 0 mm 2 m/S 665 mmHg 80%
    22:00 -2°C° 0 mm 2 m/S 665 mmHg 78%
    23:00 -2°C° 0 mm 2 m/S 665 mmHg 77%

    übermorgen, 25 Januar, Donnerstag

    Zeit Temperatur Niederschläge Wind Luftdruck Luftfeuchtigkeit
    00:00 -2°C° 0 mm 2 m/S 664 mmHg 76%
    01:00 -2°C° 0 mm 2 m/S 664 mmHg 75%
    02:00 -2°C° 0 mm 2 m/S 664 mmHg 75%
    03:00 -2°C° 0 mm 2 m/S 664 mmHg 74%
    04:00 -2°C° 0 mm 2 m/S 663 mmHg 74%
    05:00 -2°C° 0 mm 2 m/S 663 mmHg 74%
    06:00 -2°C° 0 mm 2 m/S 663 mmHg 74%
    07:00 -2°C° 0 mm 2 m/S 663 mmHg 74%
    08:00 -1°C° 0 mm 2 m/S 663 mmHg 75%
    09:00 +1°C° 0 mm 2 m/S 663 mmHg 77%
    10:00 +2°C° 0 mm 2 m/S 662 mmHg 78%
    11:00 +2°C° 0 mm 2 m/S 662 mmHg 80%
    12:00 +3°C° 0 mm 2 m/S 662 mmHg 82%
    13:00 +4°C° 0 mm 2 m/S 662 mmHg 84%
    14:00 +5°C° 0 mm 1 m/S 661 mmHg 85%
    15:00 +4°C° 0 mm 1 m/S 661 mmHg 87%
    16:00 +4°C° 0 mm 1 m/S 661 mmHg 88%
    17:00 +3°C° 0 mm 1 m/S 660 mmHg 87%
    18:00 +2°C° 0 mm 1 m/S 660 mmHg 86%
    19:00 +1°C° 0 mm 1 m/S 660 mmHg 85%
    20:00 +1°C° 0 mm 1 m/S 660 mmHg 85%
    21:00 -1°C° 0 mm 2 m/S 660 mmHg 85%
    22:00 -1°C° 0 mm 2 m/S 660 mmHg 85%
    23:00 -1°C° 0 mm 2 m/S 659 mmHg 85%

    26 Januar, Freitag

    Zeit Temperatur Niederschläge Wind Luftdruck Luftfeuchtigkeit
    00:00 -1°C° 0 mm 2 m/S 659 mmHg 84%
    01:00 -2°C° 0 mm 2 m/S 659 mmHg 84%
    02:00 -2°C° 0 mm 2 m/S 659 mmHg 85%
    03:00 0°C° 0 mm 1 m/S 658 mmHg 85%
    04:00 0°C° 0 mm 1 m/S 658 mmHg 86%
    05:00 -1°C° 0 mm 1 m/S 658 mmHg 87%
    06:00 -1°C° 0 mm 1 m/S 658 mmHg 88%
    07:00 -2°C° 0 mm 1 m/S 658 mmHg 90%
    08:00 -1°C° 0 mm 1 m/S 658 mmHg 90%
    09:00 0°C° 0 mm 1 m/S 659 mmHg 91%
    10:00 +1°C° 0 mm 1 m/S 659 mmHg 92%
    11:00 +1°C° 0,1 mm 1 m/S 659 mmHg 93%
    12:00 +1°C° 0,1 mm 2 m/S 659 mmHg 94%
    13:00 +1°C° 0,1 mm 2 m/S 659 mmHg 94%
    14:00 +1°C° 0,6 mm 2 m/S 659 mmHg 95%
    15:00 +1°C° 0,6 mm 2 m/S 659 mmHg 96%
    16:00 -1°C° 0,6 mm 2 m/S 660 mmHg 96%
    17:00 -1°C° 1,3 mm 2 m/S 660 mmHg 97%
    18:00 -1°C° 1,3 mm 2 m/S 660 mmHg 97%
    19:00 0°C° 1,3 mm 1 m/S 661 mmHg 97%
    20:00 0°C° 1,5 mm 1 m/S 661 mmHg 97%
    21:00 0°C° 1,5 mm 1 m/S 662 mmHg 97%
    22:00 0°C° 1,5 mm 1 m/S 662 mmHg 97%
    23:00 0°C° 0,9 mm 1 m/S 662 mmHg 97%

    27 Januar, Samstag

    Zeit Temperatur Niederschläge Wind Luftdruck Luftfeuchtigkeit
    00:00 0°C° 0,9 mm 1 m/S 663 mmHg 97%
    01:00 -1°C° 0,9 mm 1 m/S 663 mmHg 98%
    02:00 -1°C° 0,4 mm 1 m/S 663 mmHg 98%
    03:00 -1°C° 0,4 mm 1 m/S 664 mmHg 98%
    04:00 -1°C° 0,4 mm 1 m/S 664 mmHg 98%
    05:00 -1°C° 0,4 mm 1 m/S 664 mmHg 98%
    06:00 -1°C° 0,4 mm 1 m/S 665 mmHg 98%
    07:00 -1°C° 0,4 mm 1 m/S 665 mmHg 97%
    08:00 -1°C° 0,3 mm 1 m/S 666 mmHg 97%
    09:00 -1°C° 0,3 mm 1 m/S 666 mmHg 96%
    10:00 -1°C° 0,3 mm 1 m/S 667 mmHg 95%
    11:00 0°C° 0,1 mm 1 m/S 667 mmHg 94%
    12:00 0°C° 0,1 mm 1 m/S 667 mmHg 93%
    13:00 +1°C° 0,1 mm 1 m/S 668 mmHg 92%
    14:00 +1°C° 0,1 mm 1 m/S 668 mmHg 92%
    15:00 +1°C° 0,1 mm 1 m/S 668 mmHg 92%
    16:00 0°C° 0,1 mm 1 m/S 668 mmHg 92%
    17:00 0°C° 0 mm 1 m/S 668 mmHg 93%
    18:00 -2°C° 0 mm 0 m/S 669 mmHg 94%
    19:00 -3°C° 0 mm 0 m/S 669 mmHg 95%
    20:00 -3°C° 0 mm 0 m/S 669 mmHg 94%
    21:00 -3°C° 0 mm 0 m/S 669 mmHg 94%
    22:00 -3°C° 0 mm 1 m/S 669 mmHg 93%
    23:00 -3°C° 0 mm 1 m/S 669 mmHg 92%

    28 Januar, Sonntag

    Zeit Temperatur Niederschläge Wind Luftdruck Luftfeuchtigkeit
    00:00 -4°C° 0 mm 1 m/S 669 mmHg 90%
    01:00 -4°C° 0 mm 1 m/S 669 mmHg 89%
    02:00 -4°C° 0 mm 1 m/S 669 mmHg 88%
    03:00 -4°C° 0 mm 1 m/S 669 mmHg 86%
    04:00 -6°C° 0 mm 2 m/S 669 mmHg 85%
    05:00 -6°C° 0 mm 2 m/S 669 mmHg 83%
    06:00 -6°C° 0 mm 2 m/S 669 mmHg 81%
    07:00 -6°C° 0 mm 2 m/S 669 mmHg 80%
    08:00 -4°C° 0 mm 2 m/S 670 mmHg 78%
    09:00 -3°C° 0 mm 2 m/S 670 mmHg 76%
    10:00 -1°C° 0 mm 2 m/S 671 mmHg 74%
    11:00 +1°C° 0 mm 2 m/S 671 mmHg 77%
    12:00 +2°C° 0 mm 2 m/S 671 mmHg 79%
    13:00 +2°C° 0 mm 2 m/S 671 mmHg 81%
    14:00 +2°C° 0,1 mm 2 m/S 671 mmHg 82%
    15:00 +2°C° 0,1 mm 2 m/S 671 mmHg 82%
    16:00 +2°C° 0,1 mm 2 m/S 670 mmHg 82%
    17:00 +1°C° 0,4 mm 2 m/S 671 mmHg 82%
    18:00 +1°C° 0,4 mm 2 m/S 671 mmHg 82%
    19:00 +1°C° 0,4 mm 2 m/S 671 mmHg 82%
    20:00 +1°C° 0,5 mm 2 m/S 671 mmHg 84%
    21:00 +1°C° 0,5 mm 2 m/S 672 mmHg 86%
    22:00 +1°C° 0,5 mm 2 m/S 672 mmHg 88%
    23:00 +1°C° 0,2 mm 2 m/S 672 mmHg 90%
    Mehr zeigen